This demonstration page uses our WeatherBlox Daily Observations layout. Learn more.

Left ArrowRight Arrow

38.88101, -77.10428

Hourly Observations for July 13, 2020

Temp ( °F °C ) Dew Point ( °F °C ) Humidity (%) Winds ( mph kmh ) Pressure ( in mb ) Visibility ( mi km ) Precip ( " mm )
12:52 am 00:52 Mostly Cloudy 76 24.4 68 20 77 77 NW 6 9 29.79 1009 10 16.0934 0 0
1:52 am 01:52 Partly Cloudy 74 23.3 68 20 82 82 NNW 7 11 29.8 1009 10 16.0934 0 0
2:52 am 02:52 Mostly Cloudy 73 22.8 67 19.4 81 81 NNW 9 15 29.8 1009 10 16.0934 0 0
3:52 am 03:52 Partly Cloudy 73 22.8 67 19.4 81 81 NW 9 15 29.8 1009 10 16.0934 0 0
4:52 am 04:52 Mostly Cloudy 72 22.2 67 19.4 84 84 NNW 6 9 29.81 1009 10 16.0934 0 0
5:52 am 05:52 Mostly Cloudy 71 21.7 67 19.4 87 87 NNW 3 6 29.83 1010 10 16.0934 0 0
6:52 am 06:52 Mostly Cloudy 73 22.8 67 19.4 81 81 NW 6 9 29.84 1010 10 16.0934 0 0
7:52 am 07:52 Mostly Cloudy 76 24.4 67 19.4 74 74 NNW 7 11 29.85 1011 10 16.0934 0 0
8:52 am 08:52 Mostly Cloudy 77 25 67 19.4 71 71 N 8 13 29.86 1011 10 16.0934 0 0
9:52 am 09:52 Mostly Cloudy 81 27.2 67 19.4 62 62 NNE 6 9 29.86 1011 10 16.0934 0 0
10:52 am 10:52 Mostly Cloudy 83 28.3 65 18.3 55 55 NNW 9 15 29.87 1012 10 16.0934 0 0
11:52 am 11:52 Partly Cloudy 85 29.4 63 17.2 48 48 NNE 9 15 29.87 1012 10 16.0934 0 0
12:52 pm 12:52 Mostly Sunny 87 30.6 64 17.8 46 46 NE 6 9 29.87 1012 10 16.0934 0 0
1:52 pm 13:52 Mostly Sunny 88 31.1 61 16.1 40 40 VRB 3 6 29.86 1011 10 16.0934 0 0
2:52 pm 14:52 Partly Cloudy 88 31.1 59 15 38 38 VRB 5 7 29.85 1011 10 16.0934 0 0
3:52 pm 15:52 Partly Cloudy 90 32.2 58 14.4 34 34 VRB 3 6 29.84 1011 10 16.0934 0 0
4:52 pm 16:52 Partly Cloudy 90 32.2 60 15.6 37 37 NNW 7 11 29.84 1010 10 16.0934 0 0
5:52 pm 17:52 Partly Cloudy 87 30.6 60 15.6 40 40 N 9 15 29.83 1010 10 16.0934 0 0
6:52 pm 18:52 Partly Cloudy 89 31.7 59 15 36 36 NNE 7 11 29.84 1011 10 16.0934 0 0
7:52 pm 19:52 Partly Cloudy 85 29.4 63 17.2 48 48 NE 10 17 29.86 1011 10 16.0934 0 0
8:52 pm 20:52 Mostly Cloudy 83 28.3 64 17.8 53 53 ENE 7 11 29.88 1012 10 16.0934 0 0
9:52 pm 21:52 Mostly Cloudy with Light Rain 83 28.3 65 18.3 55 55 E 3 6 29.9 1012 10 16.0934 0.001 0.001
10:11 pm 22:11 Cloudy with Rain 79 26.1 68 20 69 69 W 10 17 29.93 1013 4 6.43736 0.01 0.254
10:14 pm 22:14 Cloudy with Heavy Rain 78 25.6 68 20 71 71 WSW 12 19 29.93 1013 2.5 4.02335 0.06 1.524
10:23 pm 22:23 Cloudy with Light Rain 78 25.6 65 18.3 64 64 Calm 29.92 1013 4 6.43736 0.13 3.302
10:27 pm 22:27 Cloudy with Light Rain 79 26.1 65 18.3 62 62 E 5 7 29.92 1013 10 16.0934 0.13 3.302
10:52 pm 22:52 Cloudy with Light Rain 76 24.4 69 20.6 79 79 E 3 6 29.92 1013 10 16.0934 0.13 3.302
11:52 pm 23:52 Cloudy 76 24.4 69 20.6 79 79 SSW 5 7 29.92 1013 10 16.0934 0.01 0.254

Powered by AerisWeather